This is the latest recevied weather packets stored in our database for station/object K4CRS-13. If no packets are shown the sender has not sent any weather packets the latest 1 day(s).
| Time | Temp. | Humidity | Pressure | Rain* | Wind** | Luminosity | Snow |
|---|---|---|---|---|---|---|---|
| 1836274582 | 19.44° C | 97% | 1052.8 hPa | 0 mm | 0 m/s | 0 W/m² | - |
| 1836274436 | 19.44° C | 97% | 1052.6 hPa | 0 mm | 0 m/s | 0 W/m² | - |
| 1836274281 | 19.44° C | 97% | 1052.9 hPa | 0 mm | 0 m/s | 0 W/m² | - |
| 1836274134 | 19.44° C | 97% | 1052.6 hPa | 0 mm | 0 m/s | 0 W/m² | - |
| 1836273980 | 19.44° C | 97% | 1052.5 hPa | 0 mm | 0 m/s | 0 W/m² | - |
| 1778069212 | 20° C | 92% | 1046.5 hPa | 0 mm | 1.79 m/s, 186° | 6 W/m² | - |
| 1778068909 | 20° C | 92% | 1046.8 hPa | 0 mm | 1.79 m/s, 184° | 6 W/m² | - |
| 1778068608 | 20° C | 92% | 1046.5 hPa | 0 mm | 1.34 m/s, 172° | 5 W/m² | - |
| 1778068306 | 20° C | 92% | 1046.6 hPa | 0 mm | 1.79 m/s, 175° | 4 W/m² | - |
| 1778068003 | 20° C | 92% | 1046.5 hPa | 0 mm | 1.34 m/s, 188° | 2 W/m² | - |
| 1778067701 | 20° C | 92% | 1046.4 hPa | 0 mm | 0.89 m/s, 181° | 3 W/m² | - |
| 1778067399 | 20° C | 92% | 1046 hPa | 0 mm | 0.89 m/s, 192° | 2 W/m² | - |
| 1778067096 | 20° C | 91% | 1045.9 hPa | 0 mm | 2.24 m/s, 192° | 3 W/m² | - |
| 1778066792 | 20° C | 91% | 1045.7 hPa | 0 mm | 1.34 m/s, 203° | 2 W/m² | - |
| 1778066490 | 20° C | 91% | 1045.7 hPa | 0 mm | 1.34 m/s, 193° | 1 W/m² | - |
| 1778066187 | 20° C | 91% | 1045.6 hPa | 0 mm | 1.34 m/s, 178° | 1 W/m² | - |
| 1778065885 | 20° C | 91% | 1045.7 hPa | 0 mm | 1.79 m/s, 175° | 1 W/m² | - |
| 1778065582 | 20° C | 91% | 1045.5 hPa | 0 mm | 2.24 m/s, 177° | 0 W/m² | - |
| 1778065279 | 20° C | 91% | 1045.5 hPa | 0 mm | 1.34 m/s, 165° | 0 W/m² | - |
| 1778064976 | 20° C | 91% | 1045.7 hPa | 0 mm | 2.24 m/s, 199° | 0 W/m² | - |
| 1778064673 | 20° C | 90% | 1045.5 hPa | 0 mm | 1.34 m/s, 179° | 0 W/m² | - |
| 1778064371 | 20° C | 90% | 1045.2 hPa | 0 mm | 1.34 m/s, 168° | 0 W/m² | - |
| 1778064068 | 20° C | 90% | 1045.5 hPa | 0 mm | 0.89 m/s, 188° | 0 W/m² | - |
| 1778063765 | 20° C | 90% | 1045.5 hPa | 0 mm | 1.34 m/s, 178° | 0 W/m² | - |
| 1778063462 | 20° C | 90% | 1045.3 hPa | 0 mm | 0.89 m/s, 183° | 0 W/m² | - |
* Rain latest hour (hover to see other rain measurements)
** Current wind speed in m/s (hover to see current wind gust speed)